Regional Weather Roundup
Issued by NWS

Home | Current Version | Previous Version | Graphics & Text | Print | Product List | Glossary On
Versions: 1 2 3 4 5 6 7 8 9 10 11 12 13 14 15 16 17 18 19 20 21 22 23 24 25 26 27 28 29 30 31 32 33 34 35 36 37 38 39 40 41 42 43 44 45 46 47 48 49 50
469
ASUS45 KTFX 250410
RWRMT
MONTANA REGIONAL WEATHER ROUNDUP
NATIONAL WEATHER SERVICE GREAT FALLS MT
1000 PM MDT FRI MAR 24 2017

NOTE: "FAIR" INDICATES FEW OR NO CLOUDS BELOW 12000 FEET WITH NO
SIGNIFICANT WEATHER AND/OR OBSTRUCTIONS TO VISIBILITY.

MTZ001>007-043-250500-
WEST OF THE DIVIDE

CITY           SKY/WX    TMP DP  RH WIND       PRES   REMARKS
KALISPELL      LGT RAIN  40  37  89 SW6       29.86R
MISSOULA       CLOUDY    47  35  63 S3        29.92S
BUTTE          CLOUDY    46  29  51 W12G20    29.91R
MULLAN PASS    LGT SNOW  29  29 100 SW8G17    29.88R FOG     WCI  21
ANACONDA         N/A     43  36  75 S7        29.91R
DEER LODGE       N/A     46  30  53 CALM      29.91R
EUREKA           N/A     43  37  81 SE9       29.83R
HAMILTON         N/A     45  37  76 SE6       29.92R
PLAINS           N/A     46  35  65 SW3       29.93R
RONAN            N/A     45  37  73 CALM      29.94R
$$

MTZ008-052>055-250500-
SOUTHWEST MONTANA

CITY           SKY/WX    TMP DP  RH WIND       PRES   REMARKS
BOZEMAN        CLOUDY    53  27  36 SW20G28   29.86R
DILLON         CLOUDY    47  27  45 S14       29.90R
W YELLOWSTONE  MIX PCPN  36  30  80 SE7       30.05R WCI  30
ENNIS          CLOUDY    45  30  57 S29G39    29.99S
THREE FORKS      N/A     52  52 100 S17       29.88R
TWIN BRIDGES     N/A     49  25  39 S8        29.91R
$$

MTZ009-010-012-014-046-048-049-054-250500-
EAST SLOPES AND CENTRAL MONTANA

CITY           SKY/WX    TMP DP  RH WIND       PRES   REMARKS
CUT BANK       MOCLDY    43  30  60 W7        29.75S
GREAT FALLS    CLOUDY    51  28  41 W18       29.77R
MALMSTROM AFB  CLOUDY    54  28  37 W20G31    29.77R
HELENA         CLOUDY    55  31  39 W21G37    29.83R
AUGUSTA          N/A     42  30  61 SW9       29.79R
BOWMANS CRNR   MOCLDY    44  33  66 SW23      29.80R
CHOTEAU          N/A     46  30  53 SW12      29.80R
CONRAD           N/A     45  33  62 SW7       29.81R
FAIRFIELD        N/A     46  30  53 SW14      29.78R
POWER          MOCLDY    50  30  46 W21       29.76R
RAYNESFORD     MOCLDY    55  23  29 W9        29.77R
$$

MTZ011-013-016-021-045-047-050-051-250500-
NORTH CENTRAL MONTANA

CITY           SKY/WX    TMP DP  RH WIND       PRES   REMARKS
HAVRE          CLOUDY    53  32  44 SW12      29.66S
LEWISTOWN      CLOUDY    53  22  29 SW20      29.78R
N BAR RANCH      N/A     54  21  28 SW20G26   29.81F
CHINOOK          N/A     55  28  35 E7        29.66F
DENTON         MOCLDY    52  24  33 W16       29.73R
FORT BENTON      N/A     57  27  30 N13       29.75R
GEYSER         MOCLDY    53  22  29 W10G20    29.77R
GRASS RANGE    MOCLDY    51  29  42 W6        29.74S
STANFORD       MOCLDY    51  22  32 SW13      29.79R
WINIFRED       MOCLDY    54  24  30 SW10      29.75R
$$

MTZ017>020-022>027-061-062-250500-
NORTHEAST MONTANA

CITY           SKY/WX    TMP DP  RH WIND       PRES   REMARKS
GLASGOW        MOCLDY    53  30  41 SE18      29.79F
JORDAN           N/A     49  32  52 E8        29.79F
SIDNEY         CLOUDY    49  35  58 SE15      29.92S
WOLF POINT     CLOUDY    54  29  38 SE8       29.85F
MALTA          MOCLDY    55  32  41 SE15      29.70F
PLENTYWOOD       N/A     43  36  75 SE15G21   29.92S
POPLAR           N/A     48  30  49 E9        29.88S
$$

MTZ028>42-056>058-250500-
SOUTHCENTRAL AND SOUTHEAST MONTANA

CITY           SKY/WX    TMP DP  RH WIND       PRES   REMARKS
BAKER          CLOUDY    44  33  65 SE15      29.96S
BILLINGS       CLOUDY    55  28  35 W9        29.81S
LIVINGSTON     CLOUDY    54  22  28 SW43G56   29.82S
MILES CITY     CLOUDY    51  31  46 SE16      29.84F
BIG TIMBER     MOCLDY    52  21  30 CALM      29.86S
FORSYTH          N/A     52  34  50 SE8       29.81F
HARLOWTON      MOCLDY    50  22  32 SE5       29.81R
LAUREL           N/A     53  28  38 W7        29.82S
$$

REGIONAL REPORTS...DAKOTAS

CITY           SKY/WX    TMP DP  RH WIND       PRES   REMARKS
WILLISTON      PTCLDY    45  32  60 SE16G25   29.96S
MINOT          CLEAR     30  27  88 E12       30.11F WCI  20
DICKINSON      CLEAR     37  31  78 SE15      30.00F WCI  28
BEACH            N/A    N/A N/A N/A MISG        N/A
TIOGA            N/A     36  36 100 SE15      30.02F WCI  26
WATFORD CITY     N/A     43  36  75 SE18      29.97F
BISMARCK       CLEAR     31  29  92 E8        30.15S WCI  23
GRAND FORKS    CLEAR     28  27  96 N6        30.23F WCI  22
FARGO          CLEAR     31  29  92 N7        30.21R WCI  24
BUFFALO SD       N/A     44  35  70 SE16      29.93F
RAPID CITY     CLEAR     42  29  59 SE9       30.07R
$$

REGIONAL REPORTS...WYOMING/IDAHO/WASHINGTON

CITY           SKY/WX    TMP DP  RH WIND       PRES   REMARKS
GILLETTE       CLEAR     45  29  53 S15       29.95F
SHERIDAN       CLEAR     40  32  73 VRB7      29.85F
BUFFALO WY     CLOUDY    52  28  39 S21G26    29.89F
CODY           CLOUDY    48  20  32 SW12      29.92S
YELLOWSTONE LA   N/A     32  23  69 MISG      30.07R
IDAHO FALLS    CLOUDY    47  32  56 S8        30.04S
SALMON         CLOUDY    48  32  53 SW7       29.92R
BOISE          CLOUDY    46  42  86 E6        30.05R
SPOKANE        MOCLDY    42  39  89 SW8       29.93R
$$

REGIONAL REPORTS...ALBERTA

CITY           SKY/WX    TMP DP  RH WIND       PRES   REMARKS
EDMONTON       CLEAR     32  28  86 NE7       29.65F WCI  26
LETHBRIDGE     CLOUDY    45  30  57 SW14G21   29.70R
MEDICINE HAT   CLOUDY    54  30  40 SW12      29.67F
WATERTON GATE    N/A     37  34  87 SW21G29     N/A  WCI  27
CARDSTON         N/A     43  30  61 SW12        N/A
MILK RIVER       N/A     45  34  65 SW21G29     N/A
$$

REGIONAL REPORTS...SASKATCHEWAN

CITY           SKY/WX    TMP DP  RH WIND       PRES   REMARKS
SWIFT CURRENT  CLOUDY    50  32  50 S13G20    29.72F
REGINA         CLOUDY    34  30  86 SE22G29   29.92S WCI  22
SASKATOON      CLOUDY    37  30  75 SE18G26   29.83F WCI  27
CYPRESS HILLS    N/A     46  21  36 W2          N/A
VAL MARIE        N/A     55  30  38 SE20G28     N/A
ROCKGLEN         N/A     41  32  70 SE15        N/A
ASSINIBOIA       N/A     36  32  87 SE7         N/A  WCI  30
$$




USA.gov is the U.S. government's official web portal to all federal, state and local government web resources and services.